Regional Weather Roundup
Issued by NWS

Home | Current Version | Previous Version | Graphics & Text | Print | Product List | Glossary On
Versions: 1 2 3 4 5 6 7 8 9 10 11 12 13 14 15 16 17 18 19 20 21 22 23 24 25 26 27 28 29 30 31 32 33 34 35 36 37 38 39 40 41 42 43 44 45 46 47 48 49 50
000
ASUS45 KCYS 310810
RWRWY

WYOMING REGIONAL WEATHER ROUNDUP
NATIONAL WEATHER SERVICE CHEYENNE WY
200 AM MDT FRI JUL 31 2015

NOTE:  "FAIR" INDICATES FEW OR NO CLOUDS BELOW 12,000 FEET
WITH NO SIGNIFICANT WEATHER AND/OR OBSTRUCTIONS TO VISIBILITY.

WYZ001-310900-
...YELLOWSTONE NATIONAL PARK...

CITY           SKY/WX    TMP DP  RH WIND       PRES   REMARKS
LK YELLOWSTONE   N/A     42  33  70 CALM      30.54S
W YELLOWSTONE  NOT AVBL

$$
WYZ002>013-054>058-071-098>099-310900-
...NORTHERN WYOMING...

CITY           SKY/WX    TMP DP  RH WIND       PRES   REMARKS
JACKSON        CLEAR     46  37  71 NE3       30.43S
CODY           CLEAR     66  36  32 SW7       30.32S
GREYBULL       CLEAR     62  39  42 CALM      30.23S
WORLAND        CLEAR     61  27  27 CALM      30.25S
SHERIDAN       CLEAR     53  45  74 CALM      30.26F
BUFFALO        CLEAR     62  37  39 W7        30.34S
GILLETTE       CLEAR     54  41  61 SW5       30.29S
HULETT         FAIR      57  41  54 S3        30.30S
NEWCASTLE      FAIR      59  43  55 CALM      30.30R

$$
WYZ014>020-022>026-101>103-310900-
...CENTRAL WYOMING...

CITY           SKY/WX    TMP DP  RH WIND       PRES   REMARKS
BIG PINEY      CLEAR     50  28  42 E5        30.45S
PINEDALE       CLEAR     43  32  65 NW5       30.46S
DUBOIS         FAIR      50  30  46 NW8       30.48S
LANDER         CLEAR     55  33  43 CALM      30.34S
RIVERTON       CLEAR     69  24  18 E7        30.34F
CASPER         CLEAR     53  35  50 NW10      30.33S
DOUGLAS        CLEAR     61  42  49 E12       30.32S

$$
WYZ021-027>030-104>119-310900-
...SOUTHERN WYOMING...

CITY           SKY/WX    TMP DP  RH WIND       PRES   REMARKS
EVANSTON       CLEAR     57  22  25 SE7       30.46S
KEMMERER       CLEAR     55  27  33 N12       30.46S
FORT BRIDGER   CLEAR     61  23  23 W9        30.46F
ROCK SPRINGS   CLEAR     60  18  19 CALM      30.41R
DIXON          FAIR      54  26  33 E12       30.40S
RAWLINS        CLEAR     56  35  45 CALM      30.42S
SARATOGA       FAIR      46  30  53 CALM      30.43F
LARAMIE        CLEAR     56  47  71 S6        30.45F
CHEYENNE       CLEAR     59  53  80 W3        30.39F
TORRINGTON     CLEAR     58  47  66 E6        30.27S
PINE BLUFFS    FAIR      55  54  94 W6        30.35F

$$



USA.gov is the U.S. government's official web portal to all federal, state and local government web resources and services.